Roseau, MN

12:17 AM CDT on August 21, 2017 (GMT -0500)
Roseau Municipal-Billberg

Weather History for KROX - March, 2013

Change the Weather History Date:

Wednesday, March 6, 2013

  Actual Average Record
Temperature  
Mean Temperature 12 °F -  
Max Temperature 21 °F 28 °F 68 °F (2002)
Min Temperature 1 °F 3 °F -35 °F (1955)
Degree Days  
Heating Degree Days 53    
Moisture  
Dew Point 8 °F    
Average Humidity 81    
Maximum Humidity 86    
Minimum Humidity 73    
Precipitation  
Precipitation 0.00 in - - ()
Sea Level Pressure  
Sea Level Pressure 30.37 in    
Wind  
Wind Speed 1 mph (SE)    
Max Wind Speed 6 mph    
Max Gust Speed -    
Visibility 8 miles    
Events Snow    
Averages and records for this station are not official NWS values.
T = Trace of Precipitation, MM = Missing Value Source: NWS Daily Summary

Daily Weather History Graph

Daily Weather History Graph

Search for Another Location

Airport or City:

Trip Planner

Search our weather history database for the weather conditions in past years. The results will help you decide how hot, cold, wet, or windy it might be!

Date:

Astronomy

Mar. 06, 2013 Rise Set
Actual Time 6:54 AM CST 6:14 PM CST
Civil Twilight 6:22 AM CST 6:46 PM CST
Nautical Twilight 5:46 AM CST 7:22 PM CST
Astronomical Twilight 5:09 AM CST 7:59 PM CST
Moon 3:25 AM CST (3/6) 12:36 PM CST (3/6)
Length of Visible Light 12h 23m
Length of Day
11h 20m
Waning Crescent, 29% of the Moon is Illuminated
Mar 6
Waning Crescent
Mar 11
New
Mar 19
First Quarter
Mar 27
Full
Apr 2
Last Quarter

Hourly Weather History & Observations

Time (CST) Temp. Windchill Dew Point Humidity Pressure Visibility Wind Dir Wind Speed Gust Speed Precip Events Conditions
12:15 AM 12.2 °F - 8.6 °F 85% 30.38 in 10.0 mi Calm Calm - N/A   Mostly Cloudy
12:34 AM 12.2 °F - 8.6 °F 85% 30.38 in 0.8 mi Calm Calm - N/A   Overcast
12:54 AM 14.0 °F - 8.6 °F 79% 30.38 in 1.8 mi Calm Calm - N/A Snow Light Snow
1:15 AM 14.0 °F - 8.6 °F 79% 30.37 in 3.0 mi Calm Calm - N/A Snow Light Snow
1:34 AM 12.2 °F - 6.8 °F 79% 30.37 in 1.2 mi Calm Calm - N/A   Haze
1:54 AM 12.2 °F - 8.6 °F 85% 30.38 in 10.0 mi Calm Calm - N/A   Mostly Cloudy
2:14 AM 12.2 °F - 8.6 °F 85% 30.38 in 10.0 mi Calm Calm - N/A   Overcast
2:34 AM 12.2 °F - 8.6 °F 85% 30.38 in 10.0 mi Calm Calm - N/A   Overcast
2:54 AM 12.2 °F - 8.6 °F 85% 30.38 in 10.0 mi Calm Calm - N/A   Overcast
3:14 AM 14.0 °F - 8.6 °F 79% 30.38 in 10.0 mi Calm Calm - N/A   Overcast
3:34 AM 14.0 °F - 10.4 °F 86% 30.37 in 10.0 mi Calm Calm - N/A   Overcast
3:54 AM 14.0 °F - 10.4 °F 86% 30.38 in 10.0 mi Calm Calm - N/A Snow Light Snow
4:14 AM 14.0 °F - 8.6 °F 79% 30.38 in 10.0 mi Calm Calm - N/A Snow Light Snow
4:34 AM 14.0 °F - 10.4 °F 86% 30.38 in 10.0 mi Calm Calm - N/A   Overcast
4:54 AM 14.0 °F - 8.6 °F 79% 30.38 in 10.0 mi Calm Calm - N/A   Overcast
5:15 AM 14.0 °F - 8.6 °F 79% 30.39 in 7.0 mi Calm Calm - N/A Snow Light Snow
5:34 AM 14.0 °F - 8.6 °F 79% 30.39 in 10.0 mi Calm Calm - N/A Snow Light Snow
5:54 AM 12.2 °F - 8.6 °F 85% 30.40 in 10.0 mi Calm Calm - N/A   Overcast
6:15 AM 12.2 °F - 8.6 °F 85% 30.41 in 10.0 mi Calm Calm - N/A Snow Light Snow
6:34 AM 12.2 °F - 8.6 °F 85% 30.41 in 10.0 mi Calm Calm - N/A   Overcast
6:54 AM 12.2 °F - 8.6 °F 85% 30.42 in 10.0 mi Calm Calm - N/A   Overcast
7:15 AM 12.2 °F - 6.8 °F 79% 30.42 in 10.0 mi Calm Calm - N/A   Overcast
7:34 AM 10.4 °F - 6.8 °F 85% 30.42 in 10.0 mi Calm Calm - N/A   Overcast
7:54 AM 8.6 °F 2.0 °F 3.2 °F 79% 30.42 in 10.0 mi North 3.5 mph - N/A   Overcast
8:14 AM 8.6 °F - 3.2 °F 79% 30.43 in 7.0 mi Calm Calm - N/A   Overcast
8:34 AM 8.6 °F - 3.2 °F 79% 30.43 in 1.0 mi Calm Calm - N/A   Haze
8:54 AM 10.4 °F - 5.0 °F 79% 30.42 in 0.2 mi Calm Calm - N/A   Haze
9:14 AM 10.4 °F 4.0 °F 6.8 °F 85% 30.43 in 0.2 mi NNE 3.5 mph - N/A   Haze
9:34 AM 10.4 °F 4.0 °F 6.8 °F 85% 30.42 in 0.2 mi NNE 3.5 mph - N/A   Haze
9:54 AM 12.2 °F 6.1 °F 6.8 °F 79% 30.42 in 0.2 mi NE 3.5 mph - N/A   Haze
10:14 AM 12.2 °F - 8.6 °F 85% 30.42 in 0.2 mi Calm Calm - N/A Snow Light Snow
10:34 AM 12.2 °F - 8.6 °F 85% 30.42 in 0.2 mi Calm Calm - N/A Snow Light Snow
10:55 AM 14.0 °F - 8.6 °F 79% 30.41 in 0.2 mi Calm Calm - N/A   Haze
11:14 AM 14.0 °F - 8.6 °F 79% 30.41 in 0.5 mi Calm Calm - N/A   Haze
11:34 AM 15.8 °F 10.2 °F 10.4 °F 79% 30.41 in 4.0 mi South 3.5 mph - N/A   Haze
11:54 AM 15.8 °F 10.2 °F 10.4 °F 79% 30.41 in 10.0 mi SSE 3.5 mph - N/A   Clear
12:14 PM 15.8 °F 10.2 °F 12.2 °F 86% 30.40 in 10.0 mi South 3.5 mph - N/A   Clear
12:34 PM 17.6 °F - 12.2 °F 79% 30.39 in 10.0 mi Calm Calm - N/A   Clear
12:55 PM 17.6 °F 10.7 °F 12.2 °F 79% 30.40 in 10.0 mi South 4.6 mph - N/A   Clear
1:14 PM 19.4 °F 14.3 °F 14.0 °F 80% 30.38 in 10.0 mi South 3.5 mph - N/A   Clear
1:34 PM 19.4 °F - 14.0 °F 80% 30.37 in 10.0 mi Calm Calm - N/A   Clear
1:55 PM 19.4 °F 12.8 °F 14.0 °F 80% 30.36 in 10.0 mi SSE 4.6 mph - N/A   Clear
2:14 PM 19.4 °F 12.8 °F 15.8 °F 86% 30.34 in 10.0 mi SSE 4.6 mph - N/A   Clear
2:34 PM 19.4 °F 12.8 °F 15.8 °F 86% 30.34 in 10.0 mi South 4.6 mph - N/A   Clear
2:54 PM 19.4 °F - 15.8 °F 86% 30.34 in 10.0 mi Calm Calm - N/A   Clear
3:14 PM 19.4 °F 12.8 °F 15.8 °F 86% 30.35 in 10.0 mi South 4.6 mph - N/A   Clear
3:34 PM 19.4 °F 11.5 °F 15.8 °F 86% 30.35 in 10.0 mi South 5.8 mph - N/A   Clear
4:14 PM 21.2 °F 14.9 °F 15.8 °F 80% 30.34 in 10.0 mi SW 4.6 mph - N/A   Clear
4:35 PM 21.2 °F - 15.8 °F 80% 30.34 in 10.0 mi Calm Calm - N/A   Clear
4:54 PM 21.2 °F - 14.0 °F 74% 30.34 in 10.0 mi Calm Calm - N/A   Clear
5:14 PM 15.8 °F - 10.4 °F 79% 30.34 in 10.0 mi Calm Calm - N/A   Clear
5:35 PM 17.6 °F - 10.4 °F 73% 30.34 in 10.0 mi Calm Calm - N/A   Clear
5:54 PM 17.6 °F - 10.4 °F 73% 30.34 in 10.0 mi Calm Calm - N/A   Clear
6:14 PM 17.6 °F - 10.4 °F 73% 30.34 in 10.0 mi Calm Calm - N/A   Clear
6:35 PM 15.8 °F - 10.4 °F 79% 30.34 in 10.0 mi Calm Calm - N/A   Clear
6:54 PM 15.8 °F - 8.6 °F 73% 30.34 in 10.0 mi Calm Calm - N/A   Clear
7:14 PM 15.8 °F - 8.6 °F 73% 30.34 in 10.0 mi Calm Calm - N/A   Clear
7:35 PM 10.4 °F - 6.8 °F 85% 30.34 in 10.0 mi Calm Calm - N/A   Clear
7:54 PM 12.2 °F 6.1 °F 8.6 °F 85% 30.34 in 10.0 mi NE 3.5 mph - N/A   Clear
8:14 PM 10.4 °F 0.8 °F 6.8 °F 85% 30.34 in 10.0 mi ENE 5.8 mph - N/A   Clear
8:35 PM 10.4 °F 2.2 °F 6.8 °F 85% 30.34 in 10.0 mi ENE 4.6 mph - N/A   Clear
8:54 PM 6.8 °F - 1.4 °F 79% 30.34 in 10.0 mi Calm Calm - N/A   Clear
9:14 PM 6.8 °F - 1.4 °F 79% 30.34 in 10.0 mi Calm Calm - N/A   Clear
9:35 PM 6.8 °F - 1.4 °F 79% 30.34 in 10.0 mi Calm Calm - N/A   Clear
9:54 PM 6.8 °F - 1.4 °F 79% 30.33 in 10.0 mi Calm Calm - N/A   Clear
10:14 PM 6.8 °F - 1.4 °F 79% 30.33 in 7.0 mi Calm Calm - N/A   Clear
10:35 PM 6.8 °F - 1.4 °F 79% 30.33 in 0.5 mi Calm Calm - N/A   Haze
10:54 PM 3.2 °F - -0.4 °F 85% 30.32 in 10.0 mi Calm Calm - N/A   Clear
11:14 PM 3.2 °F -4.2 °F -0.4 °F 85% 30.32 in 10.0 mi ESE 3.5 mph - N/A   Clear
11:35 PM 3.2 °F -4.2 °F -0.4 °F 85% - 10.0 mi SE 3.5 mph - N/A   Clear
11:54 PM 1.4 °F -9.9 °F -2.2 °F 85% 30.32 in 7.0 mi SSE 5.8 mph - N/A   Clear